Location: 10033 Water Well
(34.0865°N, 106.8959°W)
Time: 22:22:45
(UTC+00:00)

Cosmos 1954 Rocket - Pass Details

Date: 13 January 2026
Orbit: 748 x 777 km, 74.0° (Epoch: 10 February)

Event Time Altitude Azimuth Distance (km) Brightness Sun altitude
Rises 01:07:21 0° 342° (NNW) 3,218 7.2 -10.1°
Reaches altitude 10° 01:09:43 10° 342° (NNW) 2,294 6.5 -10.6°
Maximum altitude 01:14:56 86° 256° (WSW) 770 4.0 -11.6°
Drops below altitude 10° 01:20:10 10° 166° (SSE) 2,299 6.5 -12.6°
Sets 01:22:32 0° 166° (SSE) 3,226 7.3 -13.1°
